User: anonymous   Login
Location: Unspecified
(0.0000°N, 0.0000°E)
Time: 03:36:55
(UTC+00:00)
Language:

DANDE - Orbit

View from above orbital plane
View from above orbital plane
View from above satellite
View from above satellite

Ground track
Ground track

The orbit data is extracted from the following two-line orbital elements,

1 39267U 13055C   17112.90966912 +.00006575 +00000-0 +19483-3 0  9996
2 39267 081.0105 082.6591 0715886 069.9138 297.7584 14.16676331180869
Epoch (UTC): 22 April 2017 21:49:55
Eccentricity: 0.0715886
inclination: 81.0105°
perigee height: 320 km
apogee height: 1353 km
right ascension of ascending node: 82.6591°
argument of perigee: 69.9138°
revolutions per day: 14.16676331
mean anomaly at epoch: 297.7584°
orbit number at epoch: 18086

The dashed part of the orbit path shows where the satellite is in the earth's shadow,  

DLR